LRI582 LERS-LEBL

Flight info

Callsign LRI582
Flight time 1h 2m
Altitude 11000
Route VIBO1U VIBOK VIBO1E
Aircraft BE9L/L-SDFG/C

Departure

Time 2026-05-08 12:11
Airport Reus Airport (LERS)

Arrival

Time 2026-05-08 13:14
Airport Josep Tarradellas Barcelona-El Prat Airport (LEBL)
Time Latitude Longitude Altitude Speed Heading
2026-05-08 11:54 41.14421 1.14748 242 ft 0 kts 287°
2026-05-08 12:08 41.14410 1.14745 242 ft 4 kts 90°
2026-05-08 12:08 41.14407 1.14832 241 ft 10 kts 104°
2026-05-08 12:08 41.14421 1.14917 240 ft 11 kts 65°
2026-05-08 12:09 41.14426 1.14997 240 ft 4 kts 127°
2026-05-08 12:09 41.14430 1.15055 239 ft 15 kts 66°
2026-05-08 12:09 41.14476 1.15214 238 ft 21 kts 66°
2026-05-08 12:09 41.14529 1.15377 238 ft 16 kts 71°
2026-05-08 12:10 41.14561 1.15496 239 ft 11 kts 69°
2026-05-08 12:10 41.14514 1.15573 236 ft 14 kts 165°
2026-05-08 12:10 41.14431 1.15634 231 ft 12 kts 103°
2026-05-08 12:10 41.14433 1.15658 231 ft 0 kts 70°
2026-05-08 12:11 41.14434 1.15666 231 ft 10 kts 70°
2026-05-08 12:11 41.14588 1.16191 229 ft 100 kts 69°
2026-05-08 12:11 41.14859 1.17193 492 ft 119 kts 71°
2026-05-08 12:11 41.15151 1.18283 954 ft 128 kts 69°
2026-05-08 12:12 41.15455 1.19348 1521 ft 123 kts 69°
2026-05-08 12:12 41.15749 1.20383 2041 ft 122 kts 69°
2026-05-08 12:12 41.16048 1.21436 2540 ft 122 kts 69°
2026-05-08 12:12 41.16345 1.22479 3017 ft 123 kts 69°
2026-05-08 12:13 41.16644 1.23534 3487 ft 124 kts 69°
2026-05-08 12:13 41.16946 1.24598 3950 ft 125 kts 69°
2026-05-08 12:13 41.17253 1.25677 4408 ft 126 kts 69°
2026-05-08 12:13 41.17556 1.26748 4850 ft 127 kts 69°
2026-05-08 12:14 41.17865 1.27837 5290 ft 127 kts 69°
2026-05-08 12:14 41.18177 1.28933 5723 ft 129 kts 68°
2026-05-08 12:14 41.18500 1.30061 6229 ft 131 kts 69°
2026-05-08 12:14 41.18816 1.31176 6748 ft 131 kts 69°
2026-05-08 12:15 41.19136 1.32302 7255 ft 131 kts 69°
2026-05-08 12:15 41.19453 1.33416 7736 ft 132 kts 69°
2026-05-08 12:15 41.19827 1.34538 8215 ft 133 kts 61°
2026-05-08 12:15 41.20224 1.35627 8671 ft 134 kts 66°
2026-05-08 12:16 41.20723 1.36657 9122 ft 135 kts 43°
2026-05-08 12:16 41.21529 1.37285 9565 ft 136 kts 15°
2026-05-08 12:16 41.22448 1.37240 9985 ft 137 kts 334°
2026-05-08 12:16 41.23248 1.36568 10406 ft 138 kts 320°
2026-05-08 12:17 41.23926 1.35670 10825 ft 139 kts 309°
2026-05-08 12:17 41.24547 1.34591 11007 ft 158 kts 304°
2026-05-08 12:17 41.25197 1.33277 11010 ft 183 kts 302°
2026-05-08 12:17 41.25897 1.31750 11000 ft 203 kts 300°
2026-05-08 12:18 41.26646 1.30063 10991 ft 217 kts 300°
2026-05-08 12:18 41.27421 1.28295 10984 ft 226 kts 300°
2026-05-08 12:18 41.28213 1.26479 10980 ft 232 kts 300°
2026-05-08 12:18 41.29039 1.24581 10978 ft 237 kts 300°
2026-05-08 12:19 41.29868 1.22674 10976 ft 240 kts 300°
2026-05-08 12:19 41.30700 1.20759 10975 ft 242 kts 300°
2026-05-08 12:19 41.31553 1.18795 10949 ft 244 kts 300°
2026-05-08 12:19 41.32397 1.16855 10946 ft 245 kts 301°
2026-05-08 12:20 41.33618 1.15303 10932 ft 245 kts 336°
2026-05-08 12:20 41.35281 1.14968 10963 ft 241 kts 358°
2026-05-08 12:20 41.36926 1.14794 10945 ft 239 kts 355°
2026-05-08 12:20 41.38600 1.14642 10943 ft 236 kts 355°
2026-05-08 12:21 41.40216 1.14469 10943 ft 234 kts 355°
2026-05-08 12:21 41.41838 1.14302 10944 ft 233 kts 356°
2026-05-08 12:21 41.43408 1.14755 10932 ft 232 kts 34°
2026-05-08 12:21 41.44363 1.16401 10951 ft 221 kts 69°
2026-05-08 12:22 41.44901 1.18209 10914 ft 202 kts 66°
2026-05-08 12:22 41.45423 1.19908 10640 ft 199 kts 68°
2026-05-08 12:22 41.45938 1.21586 10497 ft 189 kts 68°
2026-05-08 12:22 41.46421 1.23154 10470 ft 175 kts 68°
2026-05-08 12:23 41.46864 1.24593 10441 ft 164 kts 67°
2026-05-08 12:23 41.47284 1.25958 10412 ft 155 kts 67°
2026-05-08 12:23 41.47684 1.27263 10383 ft 146 kts 67°
2026-05-08 12:23 41.48062 1.28490 10355 ft 139 kts 67°
2026-05-08 12:24 41.48416 1.29646 10327 ft 132 kts 67°
2026-05-08 12:24 41.48763 1.30772 10271 ft 131 kts 67°
2026-05-08 12:24 41.49112 1.31908 10284 ft 136 kts 67°
2026-05-08 12:24 41.49476 1.33093 10306 ft 141 kts 67°
2026-05-08 12:25 41.49856 1.34335 10324 ft 146 kts 67°
2026-05-08 12:25 41.50250 1.35622 10339 ft 151 kts 67°
2026-05-08 12:25 41.50649 1.36929 10352 ft 155 kts 67°
2026-05-08 12:25 41.51057 1.38266 10363 ft 158 kts 67°
2026-05-08 12:26 41.51475 1.39633 10372 ft 161 kts 67°
2026-05-08 12:26 41.51903 1.41034 10379 ft 163 kts 67°
2026-05-08 12:26 41.52331 1.42438 10385 ft 165 kts 67°
2026-05-08 12:26 41.52769 1.43873 10391 ft 167 kts 67°
2026-05-08 12:27 41.53208 1.45314 10359 ft 171 kts 67°
2026-05-08 12:27 41.53667 1.46820 10248 ft 179 kts 68°
2026-05-08 12:27 41.54046 1.48421 10072 ft 187 kts 87°
2026-05-08 12:27 41.53614 1.50078 9741 ft 198 kts 131°
2026-05-08 12:28 41.52522 1.51197 9374 ft 199 kts 149°
2026-05-08 12:28 41.51231 1.51861 9033 ft 199 kts 166°
2026-05-08 12:28 41.49876 1.52235 8720 ft 198 kts 170°
2026-05-08 12:28 41.48524 1.52502 8428 ft 195 kts 172°
2026-05-08 12:29 41.47192 1.52731 8153 ft 193 kts 172°
2026-05-08 12:29 41.45867 1.52945 7888 ft 191 kts 173°
2026-05-08 12:29 41.44556 1.53154 7631 ft 188 kts 173°
2026-05-08 12:29 41.43261 1.53358 7380 ft 186 kts 173°
2026-05-08 12:30 41.41977 1.53560 7134 ft 184 kts 173°
2026-05-08 12:30 41.40715 1.53758 6892 ft 183 kts 173°
2026-05-08 12:30 41.39454 1.53957 6652 ft 181 kts 173°
2026-05-08 12:30 41.38202 1.54153 6414 ft 180 kts 173°
2026-05-08 12:31 41.36974 1.54346 6180 ft 179 kts 173°
2026-05-08 12:31 41.35737 1.54542 5969 ft 176 kts 172°
2026-05-08 12:31 41.34696 1.55219 5886 ft 165 kts 129°
2026-05-08 12:31 41.34336 1.56583 5830 ft 156 kts 93°
2026-05-08 12:32 41.34268 1.57997 5753 ft 150 kts 93°
2026-05-08 12:32 41.34216 1.59376 5687 ft 144 kts 96°
2026-05-08 12:32 41.33792 1.60471 5734 ft 130 kts 142°
2026-05-08 12:32 41.32980 1.60822 5722 ft 123 kts 179°
2026-05-08 12:33 41.32132 1.60710 5659 ft 121 kts 191°
2026-05-08 12:33 41.31323 1.60424 5584 ft 120 kts 197°
2026-05-08 12:33 41.30527 1.60046 5506 ft 120 kts 200°
2026-05-08 12:33 41.29756 1.59625 5429 ft 120 kts 202°
2026-05-08 12:34 41.28992 1.59177 5352 ft 120 kts 203°
2026-05-08 12:34 41.28241 1.58722 5279 ft 119 kts 203°
2026-05-08 12:34 41.27483 1.58253 5342 ft 122 kts 205°
2026-05-08 12:34 41.26697 1.57758 5372 ft 127 kts 205°
2026-05-08 12:35 41.25903 1.57261 5370 ft 126 kts 205°
2026-05-08 12:35 41.25098 1.56756 5368 ft 126 kts 205°
2026-05-08 12:35 41.24311 1.56261 5367 ft 125 kts 205°
2026-05-08 12:35 41.23519 1.55763 5365 ft 125 kts 204°
2026-05-08 12:36 41.22744 1.55277 5353 ft 122 kts 204°
2026-05-08 12:36 41.21986 1.54801 5340 ft 119 kts 204°
2026-05-08 12:36 41.21247 1.54337 5329 ft 116 kts 204°
2026-05-08 12:36 41.20524 1.53883 5317 ft 114 kts 204°
2026-05-08 12:37 41.19812 1.53436 5307 ft 111 kts 204°
2026-05-08 12:37 41.19111 1.52995 5296 ft 109 kts 204°
2026-05-08 12:37 41.18431 1.52565 5286 ft 107 kts 205°
2026-05-08 12:37 41.17764 1.52132 5276 ft 107 kts 205°
2026-05-08 12:38 41.17050 1.51652 5340 ft 121 kts 206°
2026-05-08 12:38 41.16263 1.51117 5391 ft 134 kts 206°
2026-05-08 12:38 41.15341 1.50743 5417 ft 145 kts 177°
2026-05-08 12:38 41.14408 1.51293 5449 ft 152 kts 139°
2026-05-08 12:39 41.13577 1.52198 5476 ft 158 kts 140°
2026-05-08 12:39 41.12717 1.53130 5489 ft 162 kts 139°
2026-05-08 12:39 41.12033 1.54334 5495 ft 165 kts 119°
2026-05-08 12:39 41.11573 1.55739 5488 ft 168 kts 96°
2026-05-08 12:40 41.11878 1.57221 5487 ft 170 kts 55°
2026-05-08 12:40 41.12537 1.58516 5501 ft 170 kts 60°
2026-05-08 12:40 41.13089 1.59881 5499 ft 166 kts 62°
2026-05-08 12:40 41.13586 1.61210 5465 ft 153 kts 64°
2026-05-08 12:41 41.14023 1.62429 5432 ft 142 kts 64°
2026-05-08 12:41 41.14425 1.63573 5393 ft 130 kts 64°
2026-05-08 12:41 41.14787 1.64609 5351 ft 119 kts 64°
2026-05-08 12:41 41.15125 1.65574 5302 ft 110 kts 65°
2026-05-08 12:42 41.15458 1.66530 5286 ft 121 kts 65°
2026-05-08 12:42 41.15833 1.67611 5206 ft 135 kts 65°
2026-05-08 12:42 41.16227 1.68745 5043 ft 136 kts 65°
2026-05-08 12:42 41.16625 1.69891 4865 ft 135 kts 65°
2026-05-08 12:43 41.17014 1.71014 4690 ft 134 kts 65°
2026-05-08 12:43 41.17400 1.72127 4516 ft 133 kts 65°
2026-05-08 12:43 41.17784 1.73234 4353 ft 131 kts 65°
2026-05-08 12:43 41.18160 1.74319 4191 ft 129 kts 65°
2026-05-08 12:44 41.18534 1.75399 4027 ft 128 kts 65°
2026-05-08 12:44 41.18908 1.76475 3861 ft 128 kts 65°
2026-05-08 12:44 41.19278 1.77544 3695 ft 127 kts 65°
2026-05-08 12:44 41.19643 1.78601 3531 ft 126 kts 65°
2026-05-08 12:45 41.20013 1.79668 3364 ft 126 kts 65°
2026-05-08 12:45 41.20375 1.80715 3199 ft 125 kts 65°
2026-05-08 12:45 41.20740 1.81771 3034 ft 125 kts 65°
2026-05-08 12:45 41.21084 1.82764 2993 ft 112 kts 66°
2026-05-08 12:46 41.21389 1.83689 2979 ft 108 kts 66°
2026-05-08 12:46 41.21692 1.84586 2975 ft 105 kts 66°
2026-05-08 12:46 41.21991 1.85463 2977 ft 104 kts 65°
2026-05-08 12:46 41.22297 1.86351 3008 ft 106 kts 65°
2026-05-08 12:47 41.22607 1.87247 3049 ft 107 kts 65°
2026-05-08 12:47 41.22906 1.88152 3087 ft 107 kts 72°
2026-05-08 12:47 41.22845 1.89121 3110 ft 108 kts 117°
2026-05-08 12:47 41.22286 1.89771 3141 ft 108 kts 155°
2026-05-08 12:48 41.21608 1.90187 3188 ft 107 kts 155°
2026-05-08 12:48 41.20927 1.90604 3232 ft 107 kts 155°
2026-05-08 12:48 41.20250 1.91016 3276 ft 107 kts 155°
2026-05-08 12:48 41.19563 1.91434 3320 ft 107 kts 155°
2026-05-08 12:49 41.18882 1.91850 3363 ft 107 kts 155°
2026-05-08 12:49 41.18198 1.92266 3406 ft 107 kts 155°
2026-05-08 12:49 41.17521 1.92678 3449 ft 107 kts 155°
2026-05-08 12:49 41.16836 1.93095 3491 ft 107 kts 155°
2026-05-08 12:50 41.16159 1.93507 3533 ft 107 kts 155°
2026-05-08 12:50 41.15479 1.93921 3575 ft 108 kts 155°
2026-05-08 12:50 41.14793 1.94348 3617 ft 108 kts 154°
2026-05-08 12:50 41.14124 1.94785 3658 ft 107 kts 153°
2026-05-08 12:51 41.13609 1.95469 3684 ft 108 kts 112°
2026-05-08 12:51 41.13658 1.97449 3739 ft 111 kts 82°
2026-05-08 12:51 41.13778 1.98525 3624 ft 126 kts 81°
2026-05-08 12:52 41.13923 1.99713 3545 ft 132 kts 80°
2026-05-08 12:52 41.14236 2.02124 3396 ft 133 kts 80°
2026-05-08 12:52 41.14547 2.03260 3319 ft 132 kts 56°
2026-05-08 12:53 41.15053 2.04286 3245 ft 132 kts 57°
2026-05-08 12:53 41.15560 2.05305 3173 ft 132 kts 56°
2026-05-08 12:53 41.16075 2.06316 3101 ft 132 kts 56°
2026-05-08 12:53 41.16593 2.07325 3030 ft 132 kts 55°
2026-05-08 12:54 41.17115 2.08337 2959 ft 132 kts 55°
2026-05-08 12:54 41.17631 2.09335 2889 ft 132 kts 55°
2026-05-08 12:54 41.18155 2.10349 2818 ft 132 kts 55°
2026-05-08 12:54 41.18671 2.11348 2749 ft 132 kts 55°
2026-05-08 12:55 41.19190 2.12349 2679 ft 132 kts 55°
2026-05-08 12:55 41.19709 2.13354 2610 ft 131 kts 55°
2026-05-08 12:55 41.20225 2.14351 2541 ft 131 kts 55°
2026-05-08 12:55 41.20744 2.15356 2471 ft 131 kts 55°
2026-05-08 12:56 41.21263 2.16360 2402 ft 131 kts 55°
2026-05-08 12:56 41.21772 2.17345 2334 ft 131 kts 55°
2026-05-08 12:56 41.22290 2.18348 2266 ft 131 kts 55°
2026-05-08 12:56 41.22803 2.19342 2198 ft 131 kts 55°
2026-05-08 12:57 41.23322 2.20348 2129 ft 131 kts 55°
2026-05-08 12:57 41.23836 2.21346 2061 ft 130 kts 55°
2026-05-08 12:57 41.24343 2.22329 1994 ft 130 kts 55°
2026-05-08 12:57 41.24860 2.23332 1926 ft 130 kts 55°
2026-05-08 12:58 41.25372 2.24325 1859 ft 130 kts 55°
2026-05-08 12:58 41.25879 2.25310 1792 ft 130 kts 55°
2026-05-08 12:58 41.26392 2.26306 1736 ft 129 kts 55°
2026-05-08 12:58 41.26884 2.27262 1743 ft 123 kts 55°
2026-05-08 12:59 41.27363 2.28192 1742 ft 118 kts 55°
2026-05-08 12:59 41.27817 2.29074 1742 ft 114 kts 55°
2026-05-08 12:59 41.28264 2.29941 1719 ft 112 kts 55°
2026-05-08 12:59 41.28701 2.30793 1721 ft 111 kts 56°
2026-05-08 13:00 41.29136 2.31640 1786 ft 112 kts 55°
2026-05-08 13:00 41.29592 2.32528 1770 ft 120 kts 55°
2026-05-08 13:00 41.30074 2.33468 1765 ft 125 kts 55°
2026-05-08 13:00 41.30569 2.34434 1762 ft 129 kts 55°
2026-05-08 13:01 41.31081 2.35432 1759 ft 132 kts 55°
2026-05-08 13:01 41.31598 2.36440 1758 ft 134 kts 55°
2026-05-08 13:01 41.32129 2.37475 1757 ft 135 kts 55°
2026-05-08 13:01 41.32580 2.38566 1755 ft 136 kts 66°
2026-05-08 13:02 41.32969 2.39713 1746 ft 132 kts 65°
2026-05-08 13:02 41.33340 2.40793 1735 ft 122 kts 65°
2026-05-08 13:02 41.33681 2.41787 1733 ft 114 kts 65°
2026-05-08 13:02 41.34001 2.42723 1741 ft 109 kts 65°
2026-05-08 13:03 41.34310 2.43629 1748 ft 107 kts 65°
2026-05-08 13:03 41.34616 2.44524 1750 ft 106 kts 65°
2026-05-08 13:03 41.34921 2.45417 1751 ft 105 kts 65°
2026-05-08 13:03 41.35230 2.46290 1749 ft 104 kts 58°
2026-05-08 13:04 41.35798 2.46844 1748 ft 103 kts 11°
2026-05-08 13:04 41.36478 2.46679 1750 ft 101 kts 325°
2026-05-08 13:04 41.36854 2.45932 1752 ft 99 kts 279°
2026-05-08 13:04 41.36926 2.45030 1777 ft 97 kts 276°
2026-05-08 13:05 41.37013 2.44084 1787 ft 106 kts 276°
2026-05-08 13:05 41.37105 2.43093 1766 ft 110 kts 277°
2026-05-08 13:05 41.37203 2.42070 1758 ft 112 kts 277°
2026-05-08 13:05 41.37303 2.41029 1755 ft 112 kts 277°
2026-05-08 13:06 41.37401 2.40009 1754 ft 112 kts 277°
2026-05-08 13:06 41.37500 2.38973 1754 ft 112 kts 277°
2026-05-08 13:06 41.37600 2.37928 1753 ft 112 kts 277°
2026-05-08 13:06 41.37698 2.36903 1753 ft 112 kts 277°
2026-05-08 13:07 41.37797 2.35864 1753 ft 112 kts 277°
2026-05-08 13:07 41.37896 2.34831 1753 ft 112 kts 277°
2026-05-08 13:07 41.37994 2.33801 1753 ft 112 kts 277°
2026-05-08 13:07 41.38076 2.32773 1750 ft 112 kts 269°
2026-05-08 13:08 41.37846 2.31781 1755 ft 112 kts 245°
2026-05-08 13:08 41.37540 2.30836 1755 ft 112 kts 246°
2026-05-08 13:08 41.37223 2.29877 1754 ft 112 kts 246°
2026-05-08 13:08 41.36908 2.28934 1754 ft 112 kts 245°
2026-05-08 13:09 41.36588 2.27982 1754 ft 112 kts 245°
2026-05-08 13:09 41.36264 2.27026 1753 ft 112 kts 245°
2026-05-08 13:09 41.35942 2.26079 1753 ft 112 kts 245°
2026-05-08 13:09 41.35621 2.25134 1754 ft 112 kts 245°
2026-05-08 13:10 41.35298 2.24186 1754 ft 112 kts 245°
2026-05-08 13:10 41.34975 2.23237 1753 ft 112 kts 245°
2026-05-08 13:10 41.34658 2.22306 1740 ft 107 kts 245°
2026-05-08 13:10 41.34357 2.21423 1743 ft 103 kts 245°
2026-05-08 13:11 41.34055 2.20540 1662 ft 108 kts 245°
2026-05-08 13:11 41.33738 2.19611 1537 ft 113 kts 245°
2026-05-08 13:11 41.33411 2.18654 1396 ft 116 kts 245°
2026-05-08 13:11 41.33073 2.17663 1241 ft 119 kts 245°
2026-05-08 13:12 41.32728 2.16652 1075 ft 118 kts 245°
2026-05-08 13:12 41.32401 2.15698 885 ft 108 kts 245°
2026-05-08 13:12 41.32108 2.14817 720 ft 100 kts 246°
2026-05-08 13:12 41.31832 2.14001 580 ft 94 kts 244°
2026-05-08 13:13 41.31564 2.13246 464 ft 90 kts 245°
2026-05-08 13:13 41.31296 2.12404 428 ft 103 kts 245°
2026-05-08 13:13 41.30981 2.11520 267 ft 106 kts 245°
2026-05-08 13:13 41.30660 2.10649 104 ft 102 kts 245°
2026-05-08 13:14 41.30380 2.09804 19 ft 97 kts 245°
2026-05-08 13:14 41.30110 2.09032 11 ft 84 kts 244°
2026-05-08 13:14 41.29975 2.08633 13 ft 28 kts 244°
2026-05-08 13:14 41.29932 2.08401 16 ft 19 kts 262°
2026-05-08 13:15 41.29948 2.08311 16 ft 8 kts 349°
2026-05-08 13:15 41.29985 2.08300 17 ft 7 kts 338°
2026-05-08 13:15 41.30054 2.08257 18 ft 13 kts 341°
2026-05-08 13:15 41.30132 2.08217 19 ft 10 kts
2026-05-08 13:16 41.30191 2.08329 18 ft 19 kts 68°
2026-05-08 13:16 41.30246 2.08451 16 ft 7 kts 14°
2026-05-08 13:16 41.30291 2.08434 17 ft 9 kts 335°
2026-05-08 13:16 41.30339 2.08470 18 ft 10 kts 73°
2026-05-08 13:17 41.30353 2.08534 16 ft 11 kts 73°
2026-05-08 13:17 41.30384 2.08601 15 ft 8 kts 57°
2026-05-08 13:17 41.30412 2.08685 14 ft 5 kts 67°
2026-05-08 13:17 41.30417 2.08700 14 ft 0 kts 64°